• Join FlightAware (Why Join?)
  • Login
  • US Flag GB Flag 
11:58 EDT


 

Airport Tracker/Info


-or-


 

Live Flight TrackerFlight Track Log ✈ CTL309 ✈ 18-Apr-2013 ✈ KBKL - KOSU

Flight Track Log - Related Links

Times and Time Zones

All times are in EDT time to prevent confusion due to time zone crossing. See the CTL309 flight status page for this flight to view local times or setup timezone preferences in your user account.

Time Position Orientation Groundspeed Altitude Reporting Facility
EDT Latitude Longitude Course Direction KTS MPH feet Rate Location/Type
21:50 41.5233 -81.6647 66° East 131 151 900  Level Cleveland Center
21:50 41.5297 -81.6456 66° East 129 148 1,700 1,140 Climbing Cleveland Center
21:51 41.5028 -81.6256 151° Southeast 139 160 2,700 1,080 Climbing Cleveland Center
21:52 41.4633 -81.6222 176° South 134 154 3,900 1,080 Climbing Cleveland Center
21:53 41.4403 -81.6411 212° Southwest 91 105 4,900 840 Climbing Cleveland Center
21:54 41.4169 -81.6658 218° Southwest 112 129 5,600 480 Climbing Cleveland Center
21:55 41.3897 -81.6958 220° Southwest 109 125 6,000 180 Climbing Cleveland Center
21:56 41.3622 -81.7258 219° Southwest 134 154 6,000 -60 Level Cleveland Center
21:57 41.3350 -81.7528 217° Southwest 128 147 5,900  Descending Cleveland Center
21:58 41.3053 -81.7856 220° Southwest 129 148 6,100 60 Climbing Cleveland Center
21:59 41.2781 -81.8125 217° Southwest 130 150 6,100 -120 Level Cleveland Center
22:00 41.2464 -81.8453 218° Southwest 130 150 5,900 -60 Descending Cleveland Center
22:01 41.2208 -81.8778 224° Southwest 129 148 6,000  Climbing Cleveland Center
22:03 41.1894 -81.9075 215° Southwest 130 150 5,900 -60 Descending Cleveland Center
22:04 41.1597 -81.9400 219° Southwest 135 155 5,900  Level Cleveland Center
22:05 41.1303 -81.9669 215° Southwest 131 151 6,000  Climbing Cleveland Center
22:06 41.1006 -81.9994 219° Southwest 136 157 6,000  Level Cleveland Center
22:07 41.0689 -82.0344 220° Southwest 131 151 6,000  Level Cleveland Center
22:09 41.0111 -82.0917 217° Southwest 127 146 6,100  Climbing Indianapolis Center
22:10 40.9836 -82.1200 218° Southwest 125 144 6,000 -60 Descending Indianapolis Center
22:11 40.9553 -82.1483 217° Southwest 126 145 6,000  Level Indianapolis Center
22:12 40.9256 -82.1792 218° Southwest 132 152 6,000  Level Indianapolis Center
22:13 40.8911 -82.2156 219° Southwest 134 154 6,100  Climbing Indianapolis Center
22:14 40.8625 -82.2475 220° Southwest 134 154 6,000 -60 Descending Indianapolis Center
22:15 40.8322 -82.2767 216° Southwest 134 154 6,000 -60 Level Indianapolis Center
22:16 40.8022 -82.3092 219° Southwest 138 159 5,900  Descending Indianapolis Center
22:17 40.7717 -82.3442 221° Southwest 142 163 6,000  Climbing Indianapolis Center
22:18 40.7439 -82.3806 225° Southwest 140 161 6,000  Level Indianapolis Center
22:19 40.7142 -82.4167 223° Southwest 144 166 6,000  Level Indianapolis Center
22:20 40.6822 -82.4483 217° Southwest 143 165 6,000 -60 Level Indianapolis Center
22:21 40.6517 -82.4817 220° Southwest 142 163 5,900  Descending Indianapolis Center
22:22 40.6222 -82.5119 218° Southwest 135 155 6,100  Climbing Indianapolis Center
22:23 40.5917 -82.5417 216° Southwest 135 155 5,900 -60 Descending Indianapolis Center
22:24 40.5606 -82.5742 218° Southwest 139 160 6,000  Climbing Indianapolis Center
22:25 40.5328 -82.6050 220° Southwest 131 151 5,900  Descending Indianapolis Center
22:26 40.5050 -82.6353 220° Southwest 128 147 6,000 60 Climbing Indianapolis Center
22:27 40.4750 -82.6656 218° Southwest 133 153 6,100 -180 Climbing Indianapolis Center
22:28 40.4458 -82.6969 219° Southwest 134 154 5,700 -540 Descending Indianapolis Center
22:29 40.4136 -82.7311 219° Southwest 144 166 5,000 -780 Descending Indianapolis Center
22:30 40.3803 -82.7650 218° Southwest 149 171 4,200 -840 Descending Indianapolis Center
22:31 40.3397 -82.8119 221° Southwest 154 177 3,300 -660 Descending Indianapolis Center
22:32 40.3106 -82.8383 215° Southwest 151 174 2,900 -420 Descending Indianapolis Center
22:33 40.2772 -82.8714 217° Southwest 149 171 2,600 -300 Descending Indianapolis Center
22:34 40.2450 -82.9033 217° Southwest 147 169 2,400 -120 Descending Indianapolis Center
22:35 40.2097 -82.9419 220° Southwest 136 157 2,400 -60 Level Indianapolis Center
22:36 40.1842 -82.9653 215° Southwest 139 160 2,300 -300 Descending Indianapolis Center
22:37 40.1514 -82.9953 215° Southwest 141 162 1,900 -360 Descending Indianapolis Center
22:38 40.1178 -83.0222 212° Southwest 141 162 1,600 -300 Descending Indianapolis Center
22:39 40.0842 -83.0431 205° Southwest 136 157 1,300 -240 Descending Indianapolis Center
22:40 40.0661 -83.0694 228° Southwest 122 140 1,200 -120 Descending Indianapolis Center
22:42 40.0667 -83.0667 201° Southwest  Level FlightAware Approximate